[[{"header":{"parameterUnit":"m.s-1","parameterCategory":1,"la1":30.2991,"la2":30.254,"lo1":-89.0895,"lo2":-89.0444,"dy":0.0017,"dx":0.0017,"nx":28,"ny":28,"refTime":"2024-05-28T21:00:00:Z","depth":0,"parameterNumber":2,"parameterNumberName":"U-component_of_WINDS"},"data":[0,0,0,0,0,0,0,0,0,0,0,0,0,0,0,0,0,0,0,0,0,0,0,0,0,0,0,0,0,0,0,0,0,0,0,0,0,0,0,0,0,0,0,0,0,0,0,0,0,0,0,0,0,0,0,0,0,0,0.7304,0.7304,0,0.7326,0.7326,0.7326,0.7268,0.7266,0.7264,0.7262,0.7288,0.729,0.7293,0,0,0,0,0,0,0,0,0,0,0,0,0,0.7213,0.7215,0.7304,0.7304,0.7304,0.7326,0.7326,0.7327,0.7268,0.7266,0.7264,0.7262,0.7287,0.729,0.7293,0,0,0,0,0,0,0,0,0,0,0,0,0,0.7245,0.7215,0.7304,0.7278,0.7276,0.7326,0.7326,0.7327,0.7269,0.7266,0.7263,0.7261,0.7286,0.729,0.7293,0.7371,0,0,0.7304,0.7306,0,0,0,0,0,0,0,0,0.7244,0.7249,0.7281,0.728,0.7277,0.7291,0.7303,0.7342,0.7269,0.7271,0.7262,0.7259,0.7292,0.7295,0.7305,0.7372,0.7373,0.7305,0.7307,0.7308,0.7309,0,0,0,0,0,0,0,0.7241,0.7247,0.7313,0.7282,0.7279,0.7266,0.7267,0.731,0.7297,0.7271,0.7267,0.727,0.729,0.7302,0.7305,0.7373,0.7305,0.7308,0.731,0.7311,0.7503,0.7506,0,0,0,0,0,0,0.7242,0.7246,0.7312,0.7313,0.7253,0.7269,0.7271,0.729,0.7296,0.7294,0.7272,0.7267,0.7297,0.7301,0.7306,0.7396,0.7308,0.7312,0.7314,0.7501,0.7504,0.7507,0,0,0,0,0,0,0.724,0.7249,0.7311,0.7278,0.7285,0.7274,0.7295,0.7292,0.7303,0.7297,0.7295,0.7287,0.7295,0.7301,0.7354,0.7396,0.7313,0.7317,0.7497,0.7502,0.7506,0.7577,0,0,0,0,0,0,0.7238,0.7248,0.7277,0.7279,0.7287,0.7359,0.7298,0.7294,0.7309,0.7302,0.731,0.7308,0.7293,0.7349,0.7358,0.7399,0.732,0.7493,0.7499,0.7504,0.7571,0.7583,0.7594,0,0,0,0,0,0.7235,0.7297,0.7279,0.7287,0.7323,0.7362,0.7366,0.7346,0.7313,0.7342,0.7338,0.7308,0.739,0.7355,0.7365,0.7408,0.7491,0.7497,0.7504,0.7566,0.7581,0.7594,0,0,0,0,0,0,0.7302,0.7297,0.7277,0.7342,0.7352,0.7352,0.7388,0.7363,0.7385,0.7378,0.7353,0.7355,0.7414,0.7416,0.7378,0.7482,0.7435,0.7443,0.7478,0.7493,0.7504,0.7502,0.7322,0,0,0,0,0,0.7324,0.7355,0.7349,0.7407,0.7413,0.74,0.7416,0.74,0.741,0.7414,0.7414,0.7426,0.7454,0.7474,0.7499,0.7571,0.7571,0.7605,0.7616,0.7626,0.7634,0.7671,0.7685,0.7529,0.7529,0.7529,0,0,0.737,0.7372,0.7393,0.7421,0.7427,0.746,0.7404,0.7442,0.7466,0.742,0.7471,0.7471,0.7483,0.7545,0.7573,0.7549,0.7677,0.7634,0.7642,0.7645,0.7679,0.7694,0.7707,0.7534,0.7533,0.7532,0,0,0.7471,0.7476,0.7524,0.7531,0.754,0.753,0.7542,0.7545,0.7543,0.7592,0.7559,0.7587,0.7637,0.7646,0.7657,0.776,0.7734,0.7769,0.783,0.7866,0.7878,0.7889,0.7925,0.7939,0.7777,0.7777,0.7777,0,0.7528,0.7576,0.7552,0.7591,0.7604,0.7563,0.7611,0.7619,0.7638,0.7648,0.762,0.768,0.7685,0.7749,0.7774,0.7784,0.7797,0.7768,0.7878,0.7889,0.7898,0.7933,0.7947,0.7782,0.7781,0.7781,0.778,0,0.7645,0.7678,0.7716,0.7732,0.775,0.7794,0.7777,0.7797,0.7779,0.7772,0.7823,0.7827,0.7852,0.7866,0.785,0.7927,0.7912,0.7882,0.7834,0.7918,0.795,0.7963,0.7788,0.7786,0.7785,0.7784,0,0,0.779,0.7791,0.7806,0.7812,0.7819,0.7845,0.7886,0.7909,0.7927,0.7941,0.7975,0.8017,0.7988,0.8001,0.7985,0.8017,0.8097,0.7983,0.7982,0.8004,0.8183,0.8205,0.8221,0.8079,0.8082,0.8084,0.8182,0,0.7889,0.7959,0.7938,0.8009,0.804,0.8,0.8036,0.8045,0.8039,0.8064,0.8059,0.8088,0.8049,0.8056,0.8086,0.8081,0.8133,0.8074,0.8112,0.8113,0.811,0.8238,0.8262,0.8354,0.8194,0.8196,0.8198,0,0.8015,0.8031,0.8105,0.8105,0.8117,0.815,0.8169,0.8194,0.8202,0.8196,0.8209,0.8186,0.8227,0.8178,0.8234,0.8195,0.8209,0.8209,0.8212,0.8215,0.8161,0.8244,0.8383,0.8397,0.8217,0.8215,0.8214,0,0.8112,0.8153,0.8202,0.8209,0.8211,0.8235,0.8237,0.8242,0.8257,0.8274,0.8284,0.8306,0.8318,0.8336,0.8319,0.8285,0.8378,0.8328,0.8374,0.8375,0.8396,0.8395,0.8539,0.8405,0.8405,0.8404,0.8404,0,0.8225,0.8272,0.8246,0.8276,0.8327,0.8302,0.8354,0.8351,0.8356,0.8385,0.8353,0.8381,0.8358,0.8384,0.8371,0.842,0.8425,0.8422,0.8418,0.8425,0.8425,0.8434,0.8427,0.8408,0.8407,0.8407,0.8406,0,0.8344,0.8328,0.8379,0.8376,0.8376,0.8413,0.8411,0.8439,0.843,0.8468,0.8475,0.8462,0.8491,0.8476,0.8507,0.8498,0.856,0.8548,0.8557,0.8554,0.8601,0.8597,0.8756,0.8775,0.8629,0.863,0.8632,0,0.8417,0.8451,0.8451,0.8468,0.8472,0.8499,0.8514,0.849,0.8507,0.8518,0.8545,0.8571,0.859,0.8639,0.8633,0.8656,0.8644,0.8698,0.8647,0.8652,0.8644,0.8642,0.8645,0.8708,0.871,0.8711,0.8712,0,0.8548,0.8538,0.856,0.8579,0.8597,0.8611,0.8622,0.8638,0.8615,0.8635,0.8664,0.8679,0.8709,0.8735,0.8755,0.8757,0.8731,0.8728,0.874,0.8747,0.8751,0.8749,0.8585,0.8725,0.8724,0.8723,0.8722,0.8722,0.8646,0.8674,0.8678,0.8703,0.8709,0.872,0.8745,0.8739,0.8762,0.8784,0.8769,0.8803,0.881,0.8833,0.8839,0.8865,0.8844,0.8861,0.8865,0.887,0.8876,0.8747,0.8869,0.8868,0.8868,0.8868,0.8867,0,0.8775,0.8775,0.8798,0.8814,0.8834,0.8806,0.8817,0.8835,0.8865,0.8873,0.8892,0.8925,0.8949,0.8945,0.8967,0.8989,0.8978,0.8996,0.8994,0.8995,0.8894,0.8881,0.9005,0.9005,0.9005,0.9004,0.9004,0.9004,0.8845,0.8891,0.8881,0.893,0.893,0.8962,0.897,0.898,0.8986,0.9023,0.9043,0.9039,0.9042,0.9064,0.9086,0.9084,0.9093,0.9116,0.911,0.9016,0.9002,0.8989,0.8977,0.9118,0.9119,0.9208,0.9209,0.921]},{"header":{"parameterUnit":"m.s-1","parameterCategory":1,"la1":30.2991,"la2":30.254,"lo1":-89.0895,"lo2":-89.0444,"dy":0.0017,"dx":0.0017,"nx":28,"ny":28,"refTime":"2024-05-28T21:00:00:Z","depth":0,"parameterNumber":3,"parameterNumberName":"V-component_of_WINDS"},"data":[0,0,0,0,0,0,0,0,0,0,0,0,0,0,0,0,0,0,0,0,0,0,0,0,0,0,0,0,0,0,0,0,0,0,0,0,0,0,0,0,0,0,0,0,0,0,0,0,0,0,0,0,0,0,0,0,0,0,2.0656,2.0656,0,2.0668,2.0668,2.0668,2.0641,2.064,2.0639,2.0639,2.0649,2.065,2.0651,0,0,0,0,0,0,0,0,0,0,0,0,0,2.0608,2.0609,2.0656,2.0656,2.0656,2.0668,2.0668,2.0668,2.0641,2.064,2.0639,2.0638,2.0649,2.065,2.0651,0,0,0,0,0,0,0,0,0,0,0,0,0,2.0625,2.0609,2.0656,2.0644,2.0643,2.0668,2.0668,2.0668,2.0642,2.064,2.0639,2.0638,2.0648,2.065,2.0652,2.0687,0,0,2.0657,2.0657,0,0,0,0,0,0,0,0,2.0624,2.0627,2.0646,2.0645,2.0644,2.0652,2.0655,2.0675,2.0642,2.0642,2.0639,2.0637,2.0651,2.0652,2.0657,2.0688,2.0688,2.0657,2.0658,2.0658,2.0659,0,0,0,0,0,0,0,2.0623,2.0626,2.0661,2.0646,2.0645,2.0638,2.0639,2.0659,2.0654,2.0642,2.064,2.0642,2.065,2.0656,2.0657,2.0689,2.0657,2.0658,2.0659,2.066,2.0748,2.0749,0,0,0,0,0,0,2.0623,2.0625,2.066,2.0661,2.0631,2.064,2.0641,2.0651,2.0653,2.0653,2.0643,2.0641,2.0654,2.0656,2.0658,2.0699,2.0658,2.066,2.0661,2.0747,2.0748,2.075,0,0,0,0,0,0,2.0622,2.0627,2.066,2.0643,2.0646,2.0642,2.0653,2.0652,2.0657,2.0654,2.0653,2.065,2.0653,2.0655,2.068,2.0699,2.0661,2.0662,2.0745,2.0747,2.0749,2.0782,0,0,0,0,0,0,2.0621,2.0627,2.0641,2.0643,2.0647,2.0683,2.0654,2.0653,2.066,2.0657,2.066,2.0659,2.0652,2.0678,2.0682,2.07,2.0663,2.0743,2.0746,2.0748,2.0779,2.0785,2.079,0,0,0,0,0,2.062,2.0649,2.0642,2.0646,2.0665,2.0684,2.0686,2.0677,2.0662,2.0675,2.0674,2.0659,2.0697,2.0681,2.0685,2.0704,2.0742,2.0745,2.0748,2.0777,2.0784,2.079,0,0,0,0,0,0,2.0648,2.0649,2.0641,2.0672,2.0678,2.0679,2.0696,2.0685,2.0695,2.0692,2.068,2.0681,2.0708,2.0709,2.0691,2.0739,2.0717,2.0721,2.0737,2.0743,2.0749,2.0747,2.0665,0,0,0,0,0,2.0659,2.0675,2.0674,2.0702,2.0706,2.0701,2.0709,2.0701,2.0707,2.0709,2.0709,2.0714,2.0727,2.0735,2.0747,2.078,2.0779,2.0795,2.08,2.0805,2.0808,2.0824,2.0831,2.076,2.076,2.076,0,0,2.0679,2.0682,2.0693,2.0708,2.0712,2.0728,2.0703,2.0721,2.0732,2.0711,2.0735,2.0735,2.074,2.0769,2.0781,2.077,2.0828,2.0809,2.0812,2.0813,2.0828,2.0835,2.0841,2.0762,2.0762,2.0761,0,0,2.0725,2.073,2.0753,2.0757,2.0763,2.076,2.0765,2.0768,2.0767,2.0791,2.0775,2.0788,2.0811,2.0815,2.082,2.0868,2.0854,2.0872,2.0899,2.0915,2.092,2.0925,2.0941,2.0947,2.0875,2.0875,2.0875,0,2.075,2.0774,2.0766,2.0785,2.0791,2.0774,2.0797,2.0801,2.0811,2.0816,2.0803,2.0831,2.0833,2.0862,2.0874,2.0879,2.0884,2.0871,2.0921,2.0925,2.093,2.0944,2.0951,2.0877,2.0877,2.0877,2.0877,0,2.0804,2.0821,2.0839,2.0849,2.0857,2.0878,2.0872,2.0882,2.0875,2.0872,2.0896,2.0898,2.0909,2.0916,2.0908,2.0943,2.0936,2.0923,2.09,2.0939,2.0952,2.0958,2.088,2.0879,2.0879,2.0878,0,0,2.0867,2.0873,2.0879,2.0883,2.0889,2.0901,2.0921,2.0933,2.0941,2.0948,2.0964,2.0984,2.0971,2.0976,2.0969,2.0984,2.102,2.0968,2.0968,2.0976,2.1057,2.1066,2.1073,2.1012,2.1013,2.1014,2.1056,0,2.0911,2.0946,2.0939,2.0972,2.0987,2.0971,2.0988,2.0993,2.0992,2.1003,2.1001,2.1015,2.0998,2.1001,2.1015,2.1012,2.1035,2.101,2.1025,2.1025,2.1023,2.108,2.109,2.113,2.1062,2.1063,2.1063,0,2.0967,2.0977,2.1012,2.1015,2.1021,2.1037,2.1046,2.1058,2.1063,2.1061,2.1068,2.1058,2.1077,2.1055,2.108,2.1063,2.1069,2.1069,2.107,2.107,2.1046,2.108,2.1143,2.1148,2.1072,2.1071,2.107,0,2.1008,2.103,2.1054,2.1058,2.1062,2.1073,2.1076,2.1079,2.1087,2.1095,2.11,2.1111,2.1116,2.1124,2.1117,2.1102,2.1143,2.1121,2.1141,2.1141,2.1149,2.1148,2.1212,2.1155,2.1155,2.1155,2.1155,0,2.1058,2.1079,2.1072,2.1086,2.111,2.1102,2.1125,2.1125,2.1129,2.1142,2.113,2.1143,2.1133,2.1145,2.114,2.1161,2.1164,2.1162,2.116,2.1162,2.1162,2.1165,2.1161,2.1157,2.1156,2.1156,2.1156,0,2.1107,2.1103,2.1127,2.113,2.1131,2.1148,2.1149,2.1162,2.116,2.1177,2.1181,2.1177,2.119,2.1184,2.1198,2.1195,2.1221,2.1217,2.122,2.1218,2.1237,2.1235,2.1303,2.1311,2.1251,2.1252,2.1252,0,2.1137,2.1154,2.1158,2.1166,2.117,2.1183,2.1191,2.1183,2.1191,2.1199,2.121,2.1223,2.1232,2.1254,2.1252,2.1262,2.1257,2.128,2.1258,2.126,2.1255,2.1254,2.1255,2.1284,2.1285,2.1285,2.1286,0,2.1192,2.119,2.1201,2.1212,2.1222,2.123,2.1237,2.1244,2.1237,2.1247,2.126,2.1268,2.1282,2.1294,2.1303,2.1305,2.1294,2.1293,2.1298,2.1299,2.13,2.1298,2.123,2.1291,2.129,2.129,2.129,2.129,2.1232,2.1245,2.125,2.1263,2.1268,2.1275,2.1287,2.1286,2.1298,2.1309,2.1304,2.132,2.1324,2.1335,2.1339,2.135,2.1341,2.1348,2.135,2.1351,2.1353,2.13,2.1352,2.1352,2.1352,2.1352,2.1351,0,2.1285,2.1287,2.13,2.131,2.132,2.131,2.1317,2.1326,2.134,2.1345,2.1355,2.137,2.1382,2.1381,2.1392,2.1401,2.1396,2.1404,2.1402,2.1403,2.1362,2.1356,2.1408,2.1408,2.1408,2.1408,2.1408,2.1408,2.1313,2.1335,2.1333,2.1357,2.1359,2.1375,2.1379,2.1385,2.1389,2.1407,2.1417,2.1417,2.1419,2.143,2.144,2.144,2.1443,2.1453,2.145,2.1411,2.1406,2.14,2.1395,2.1454,2.1454,2.149,2.1491,2.1491]}]]